1485644400.0,54352,11.69,73806.8,-3.13,-33.95,-34.19,0,*57
1485644401.25,54353,11.69,73810.3,-3.17,-34.01,-34.25,0,*57
1485644402.51,54354,11.69,73808.3,-3.17,-34.01,-34.25,0,*50
1485644403.76,54355,11.69,73810.0,-3.17,-34.13,-34.35,0,*53
1485644405.02,54356,11.69,73810.0,-3.17,-34.13,-34.35,0,*50
1485644406.24,54357,11.69,73810.8,-3.17,-34.25,-34.41,0,*57
1485644407.5,54358,11.69,73810.0,-3.17,-33.83,-34.01,0,*57
1485644408.79,54359,11.69,73812.8,-3.13,-33.73,-33.89,0,*5A
1485644410.04,54360,11.69,73808.3,-3.13,-33.95,-34.19,0,*56
1485644411.29,54361,11.69,73808.0,-3.17,-34.13,-34.35,0,*54
1485644412.55,54362,11.69,73810.5,-3.17,-34.13,-34.35,0,*57
1485644413.8,54363,11.69,73810.3,-3.17,-34.13,-34.35,0,*56
1485644415.06,54364,11.69,73810.8,-3.17,-34.13,-34.35,0,*51
1485644416.31,54365,11.69,73808.0,-3.17,-34.13,-34.35,0,*50
1485644417.57,54366,11.69,73810.5,-3.13,-34.13,-34.31,0,*53
1485644418.79,54367,11.69,73810.8,-3.17,-34.13,-34.41,0,*51
1485644420.05,54368,11.69,73806.8,-3.17,-34.19,-34.41,0,*54
1485644421.33,54369,11.69,73810.0,-3.17,-34.01,-34.35,0,*5F
1485644422.55,54370,11.69,73808.8,-3.17,-34.13,-34.25,0,*55
1485644423.81,54371,11.69,73810.0,-3.13,-34.07,-34.31,0,*50
1485644425.06,54372,11.69,73808.5,-3.13,-34.13,-34.31,0,*56
1485644426.32,54373,11.69,73810.5,-3.17,-34.19,-34.41,0,*5E
1485644427.57,54374,11.69,73812.3,-3.17,-34.01,-34.25,0,*52
1485644428.82,54375,11.69,73808.8,-3.17,-34.13,-34.35,0,*51
1485644430.08,54376,11.69,73810.5,-3.17,-34.13,-34.35,0,*52
1485644431.36,54377,11.69,73812.0,-3.17,-34.01,-34.31,0,*54
1485644432.61,54378,11.69,73810.3,-3.17,-34.13,-34.35,0,*5C
1485644433.84,54379,11.69,73810.0,-3.17,-34.25,-34.41,0,*5B
1485644435.12,54380,11.69,73814.3,-3.17,-34.35,-34.53,0,*5F
1485644436.35,54381,11.69,73810.8,-3.17,-33.95,-34.25,0,*52
1485644437.57,54382,11.69,73810.3,-3.17,-34.13,-34.25,0,*58
1485644438.85,54383,11.69,73812.5,-3.17,-34.19,-34.35,0,*52
1485644440.13,54384,11.69,73808.8,-3.13,-34.19,-34.35,0,*51
1485644441.41,54385,11.69,73808.8,-3.17,-34.19,-34.35,0,*54
1485644442.69,54386,11.69,73810.0,-3.17,-34.01,-34.35,0,*5E
1485644443.95,54387,11.69,73808.0,-3.17,-34.25,-34.53,0,*59
1485644445.18,54388,11.69,73812.3,-3.19,-34.25,-34.53,0,*58
1485644446.44,54389,11.69,73808.3,-3.19,-34.19,-34.53,0,*56
1485644447.69,54390,11.69,73810.3,-3.19,-34.19,-34.35,0,*5E
1485644448.92,54391,11.69,73812.0,-3.19,-34.19,-34.41,0,*5C
1485644450.15,54392,11.69,73812.0,-3.21,-34.25,-34.41,0,*5B
1485644451.38,54393,11.69,73810.8,-3.19,-34.13,-34.35,0,*57
1485644452.61,54394,11.69,73808.3,-3.19,-34.13,-34.35,0,*50
1485644453.87,54395,11.69,73808.5,-3.19,-34.19,-34.53,0,*5B
1485644455.11,54396,11.69,73810.8,-3.19,-34.13,-34.53,0,*52
1485644456.34,54397,11.69,73808.5,-3.19,-34.25,-34.35,0,*56
1485644457.6,54398,11.69,73808.0,-3.21,-34.07,-34.31,0,*56
1485644458.85,54399,11.69,73810.5,-3.21,-33.89,-34.07,0,*53
1485644460.11,54400,11.69,73812.0,-3.19,-33.77,-34.01,0,*58
1485644461.34,54401,11.69,73810.0,-3.19,-33.77,-33.95,0,*53
1485644462.55,54402,11.69,73810.8,-3.19,-33.67,-33.83,0,*56
1485644463.78,54403,11.69,73810.8,-3.19,-33.77,-33.83,0,*56
1485644465.01,54404,11.69,73808.8,-3.19,-33.77,-33.95,0,*56
1485644466.24,54405,11.69,73808.0,-3.17,-33.67,-33.83,0,*5F
1485644467.52,54406,11.69,73808.5,-3.13,-33.61,-33.89,0,*54
1485644468.78,54407,11.69,73808.5,-3.17,-33.67,-33.77,0,*56
1485644470.01,54408,11.69,73810.8,-3.17,-33.67,-33.95,0,*55
1485644471.29,54409,11.69,73810.3,-3.17,-34.01,-34.35,0,*5E
1485644472.54,54410,11.69,73814.8,-3.17,-34.01,-34.25,0,*57
1485644473.8,54411,11.69,73808.5,-3.17,-34.01,-34.25,0,*56
1485644475.03,54412,11.69,73810.5,-3.17,-33.83,-34.13,0,*5D
1485644476.29,54413,11.69,73810.8,-3.17,-33.77,-34.13,0,*57
1485644477.51,54414,11.69,73810.0,-3.17,-33.95,-34.25,0,*59
1485644478.79,54415,11.69,73812.3,-3.17,-34.01,-34.19,0,*5D
1485644480.04,54416,11.69,73808.3,-3.13,-33.89,-34.07,0,*52
1485644481.29,54417,11.69,73810.8,-3.13,-33.95,-34.19,0,*51
1485644482.54,54418,11.69,73808.5,-3.17,-34.19,-34.41,0,*54
1485644483.8,54419,11.69,73808.0,-3.13,-34.13,-34.35,0,*58
1485644485.06,54420,11.69,73810.8,-3.17,-34.25,-34.53,0,*53
1485644486.31,54421,11.69,73810.3,-3.17,-34.25,-34.53,0,*52
1485644487.59,54422,11.69,73808.3,-3.17,-34.01,-34.35,0,*57
1485644488.85,54423,11.69,73810.8,-3.17,-34.25,-34.53,0,*50
1485644490.11,54424,11.69,73810.3,-3.17,-34.13,-34.35,0,*52
1485644491.35,54425,11.69,73810.5,-3.13,-33.95,-34.19,0,*50
1485644492.58,54426,11.69,73814.0,-3.17,-33.95,-34.25,0,*58
1485644493.83,54427,11.69,73808.5,-3.17,-34.19,-34.25,0,*5A
1485644495.08,54428,11.69,73810.0,-3.13,-33.95,-34.19,0,*5D
1485644496.33,54429,11.69,73808.0,-3.17,-34.01,-34.25,0,*5D
1485644497.59,54430,11.69,73808.8,-3.13,-34.07,-34.31,0,*52
1485644498.87,54431,11.69,73810.0,-3.17,-34.19,-34.35,0,*5C
1485644500.12,54432,11.69,73810.8,-3.17,-34.25,-34.53,0,*50
1485644501.41,54433,11.69,73806.5,-3.17,-34.19,-34.53,0,*5E
1485644502.66,54434,11.69,73804.5,-3.17,-34.13,-34.35,0,*53
1485644503.92,54435,11.69,73808.0,-3.17,-33.77,-33.95,0,*5A
1485644505.15,54436,11.69,73812.3,-3.17,-33.95,-34.13,0,*5C
1485644506.37,54437,11.69,73808.3,-3.17,-33.95,-34.25,0,*58
1485644507.65,54438,11.69,73808.5,-3.17,-34.01,-34.35,0,*5C
1485644508.88,54439,11.69,73808.0,-3.17,-34.13,-34.25,0,*5F
1485644510.15,54440,11.69,73810.8,-3.13,-33.77,-34.19,0,*5F
1485644511.41,54441,11.69,73808.3,-3.17,-34.01,-34.13,0,*56
1485644512.68,54442,11.69,73808.3,-3.17,-33.83,-34.01,0,*5B
1485644513.9,54443,11.69,73808.3,-3.17,-33.95,-34.25,0,*5B
1485644515.15,54444,11.69,73810.0,-3.13,-33.95,-34.19,0,*57
1485644516.42,54445,11.69,73810.0,-3.13,-33.89,-34.19,0,*5B
1485644517.67,54446,11.69,73812.0,-3.13,-33.95,-34.31,0,*5F
1485644518.93,54447,11.69,73806.5,-3.13,-34.07,-34.31,0,*52
1485644520.2,54448,11.69,73808.8,-3.13,-33.89,-34.19,0,*56
1485644521.45,54449,11.69,73808.5,-3.13,-33.89,-34.07,0,*58
1485644522.7,54450,11.69,73806.0,-3.13,-33.95,-34.19,0,*52
1485644523.93,54451,11.69,73804.0,-3.17,-33.83,-34.25,0,*5F
1485644525.18,54452,11.69,73808.5,-3.13,-34.07,-34.19,0,*5C
1485644526.44,54453,11.69,73808.0,-3.17,-33.83,-34.01,0,*5B
1485644527.72,54454,11.69,73806.3,-3.13,-33.89,-34.19,0,*5B
1485644528.97,54455,11.69,73808.8,-3.17,-33.77,-34.13,0,*55
1485644530.24,54456,11.69,73810.8,-3.17,-33.67,-34.01,0,*54
1485644531.52,54457,11.69,73808.5,-3.17,-33.77,-34.01,0,*54
1485644532.78,54458,11.69,73810.0,-3.13,-33.73,-33.95,0,*51
1485644534.04,54459,11.69,73806.3,-3.13,-33.73,-33.95,0,*50
1485644535.32,54460,11.69,73806.0,-3.13,-33.61,-33.89,0,*54
1485644536.6,54461,11.69,73808.3,-3.17,-33.77,-34.01,0,*51
1485644537.85,54462,11.69,73808.3,-3.13,-33.95,-34.19,0,*53
1485644539.11,54463,11.69,73806.0,-3.13,-34.07,-34.31,0,*54
1485644540.38,54464,11.69,73806.8,-3.13,-33.89,-34.31,0,*52
1485644541.63,54465,11.69,73808.8,-3.13,-33.77,-34.07,0,*57
1485644542.89,54466,11.69,73808.0,-3.13,-33.77,-34.07,0,*54
1485644544.14,54467,11.69,73806.8,-3.11,-33.61,-33.73,0,*54
1485644545.41,54468,11.69,73806.3,-3.11,-33.73,-33.77,0,*5C
1485644546.64,54469,11.69,73806.8,-3.11,-33.73,-33.95,0,*51
1485644547.87,54470,11.69,73808.5,-3.11,-33.89,-34.07,0,*50
1485644549.1,54471,11.69,73806.5,-3.09,-33.55,-33.83,0,*52
1485644550.33,54472,11.69,73806.8,-3.11,-33.77,-34.07,0,*53
1485644551.57,54473,11.69,73804.3,-3.11,-33.83,-34.01,0,*5F
1485644552.8,54474,11.69,73808.0,-3.11,-33.55,-33.73,0,*51
1485644554.03,54475,11.69,73810.3,-3.11,-33.43,-33.55,0,*53
1485644555.3,54476,11.69,73806.5,-3.09,-33.49,-33.67,0,*52
1485644556.55,54477,11.69,73808.8,-3.09,-33.55,-33.73,0,*5B
1485644557.79,54478,11.69,73806.0,-3.09,-33.55,-33.67,0,*51
1485644559.05,54479,11.69,73810.0,-3.09,-33.55,-33.73,0,*55
1485644560.31,54480,11.69,73810.0,-3.09,-33.55,-33.73,0,*53
1485644561.57,54481,11.69,73806.5,-3.09,-33.67,-33.73,0,*53
1485644562.83,54482,11.69,73808.8,-3.07,-33.73,-33.89,0,*5E
1485644564.1,54483,11.69,73810.3,-3.07,-33.73,-33.89,0,*5F
1485644565.3,54484,11.69,73806.8,-3.07,-33.55,-33.83,0,*56
1485644566.54,54485,11.69,73806.5,-3.07,-33.83,-34.01,0,*51
1485644567.81,54486,11.69,73808.8,-3.07,-33.73,-34.01,0,*5D
1485644569.01,54487,11.69,73804.8,-3.07,-33.55,-33.83,0,*55
1485644570.28,54488,11.69,73806.3,-3.07,-33.73,-34.01,0,*53
1485644571.52,54489,11.69,73808.3,-3.07,-33.67,-34.01,0,*57
1485644572.78,54490,11.69,73808.5,-3.07,-33.61,-33.77,0,*5F
1485644574.04,54491,11.69,73808.8,-3.07,-33.73,-33.89,0,*5C
1485644575.25,54492,11.69,73806.8,-3.07,-33.67,-33.95,0,*57
1485644576.53,54493,11.69,73806.3,-3.05,-33.49,-33.61,0,*53
1485644577.76,54494,11.69,73806.0,-3.07,-33.49,-33.55,0,*51
1485644578.99,54495,11.69,73810.5,-3.05,-33.67,-33.83,0,*55
1485644580.24,54496,11.69,73804.8,-3.05,-33.77,-33.95,0,*50
1485644581.48,54497,11.69,73806.8,-3.07,-33.73,-34.13,0,*5E
1485644582.76,54498,11.69,73810.3,-3.05,-34.01,-34.19,0,*5B
1485644583.99,54499,11.69,73812.0,-3.07,-34.01,-34.25,0,*57
1485644585.22,54500,11.69,73808.0,-3.05,-34.07,-34.25,0,*52
1485644586.46,54501,11.69,73810.8,-3.05,-34.19,-34.41,0,*5E
1485644587.71,54502,11.69,73808.8,-3.05,-34.19,-34.41,0,*5D
1485644588.92,54503,11.69,73808.5,-3.07,-34.13,-34.41,0,*54
1485644590.2,54504,11.69,73810.5,-3.05,-34.01,-34.19,0,*5F
1485644591.43,54505,11.69,73808.8,-3.07,-34.07,-34.19,0,*5A
1485644592.63,54506,11.69,73808.8,-3.07,-34.25,-34.41,0,*54
1485644593.88,54507,11.69,73808.5,-3.05,-33.83,-34.19,0,*51
1485644595.11,54508,11.69,73806.5,-3.05,-33.95,-34.07,0,*56
1485644596.33,54509,11.69,73806.3,-3.07,-34.01,-34.25,0,*5F
1485644597.56,54510,11.69,73810.0,-3.07,-33.89,-34.25,0,*50
1485644598.81,54511,11.69,73810.8,-3.05,-33.77,-34.07,0,*52
1485644600.06,54512,11.69,73808.0,-3.05,-33.77,-33.95,0,*5D
1485644601.27,54513,11.69,73804.5,-3.07,-33.83,-34.13,0,*5C
1485644602.5,54514,11.69,73810.5,-3.05,-33.83,-34.07,0,*5C
1485644603.71,54515,11.69,73808.8,-3.07,-33.83,-34.07,0,*5F
1485644604.96,54516,11.69,73806.8,-3.05,-33.77,-33.95,0,*59
1485644606.21,54517,11.69,73808.5,-3.05,-34.01,-34.25,0,*52
1485644607.49,54518,11.69,73810.3,-3.05,-34.19,-34.35,0,*55
1485644608.72,54519,11.69,73810.8,-3.05,-34.07,-34.25,0,*5A
1485644609.94,54520,11.69,73808.8,-3.05,-34.07,-34.41,0,*52
1485644611.2,54521,11.69,73810.8,-3.05,-34.07,-34.35,0,*50
1485644612.43,54522,11.69,73810.3,-3.05,-33.67,-33.95,0,*5F
1485644613.65,54523,11.69,73810.8,-3.07,-34.01,-34.25,0,*57
1485644614.89,54524,11.69,73808.8,-3.07,-34.07,-34.31,0,*53
1485644616.14,54525,11.69,73804.5,-3.05,-33.95,-34.19,0,*56
1485644617.39,54526,11.69,73806.5,-3.05,-34.07,-34.19,0,*59
1485644618.64,54527,11.69,73810.0,-3.05,-34.01,-34.25,0,*51
1485644619.87,54528,11.69,73808.5,-3.05,-34.07,-34.25,0,*58
1485644621.12,54529,11.69,73808.8,-3.05,-34.25,-34.53,0,*58
1485644622.35,54530,11.69,73808.3,-3.03,-34.13,-34.31,0,*57
1485644623.6,54531,11.69,73806.8,-3.05,-34.01,-34.25,0,*56
1485644624.85,54532,11.69,73806.3,-3.05,-33.95,-34.19,0,*50
1485644626.1,54533,11.69,73810.5,-3.05,-33.95,-34.19,0,*51
1485644627.37,54534,11.69,73810.0,-3.05,-34.19,-34.35,0,*5B
1485644628.62,54535,11.69,73808.3,-3.05,-34.19,-34.41,0,*59
1485644629.87,54536,11.69,73810.8,-3.05,-34.25,-34.35,0,*56
1485644631.15,54537,11.69,73808.3,-3.05,-34.01,-34.19,0,*5F
1485644632.37,54538,11.69,73810.8,-3.05,-33.95,-34.25,0,*55
1485644633.65,54539,11.69,73810.5,-3.05,-34.01,-34.35,0,*5F
1485644634.85,54540,11.69,73808.0,-3.07,-34.07,-34.25,0,*54
1485644636.11,54541,11.69,73804.8,-3.05,-34.07,-34.35,0,*56
1485644637.34,54542,11.69,73808.8,-3.07,-34.31,-34.47,0,*57
1485644638.62,54543,11.69,73806.8,-3.05,-34.19,-34.35,0,*5B
1485644639.86,54544,11.69,73810.0,-3.07,-34.31,-34.47,0,*51
1485644641.09,54545,11.69,73810.5,-3.07,-34.07,-34.31,0,*54
1485644642.37,54546,11.69,73810.5,-3.05,-34.01,-34.19,0,*59
1485644643.57,54547,11.69,73806.8,-3.07,-34.13,-34.41,0,*54
1485644644.81,54548,11.69,73806.8,-3.07,-34.01,-34.41,0,*58
1485644646.05,54549,11.69,73806.8,-3.05,-34.19,-34.41,0,*52
1485644647.34,54550,11.69,73808.8,-3.05,-34.35,-34.53,0,*57
1485644648.56,54551,11.69,73808.5,-3.05,-34.07,-34.25,0,*56
1485644649.81,54552,11.69,73804.5,-3.05,-34.01,-34.25,0,*53
1485644651.09,54553,11.69,73808.8,-3.05,-34.01,-34.19,0,*5D
1485644652.37,54554,11.69,73808.0,-3.05,-34.01,-34.19,0,*5A
1485644653.59,54555,11.69,73804.3,-3.07,-33.89,-34.25,0,*51
1485644654.8,54556,11.69,73806.8,-3.07,-34.13,-34.41,0,*54
1485644656.0,54557,11.69,73810.5,-3.07,-34.25,-34.41,0,*50
1485644657.24,54558,11.69,73806.0,-3.05,-33.95,-34.19,0,*5C
1485644658.48,54559,11.69,73806.3,-3.07,-33.73,-34.13,0,*5D
1485644659.71,54560,11.69,73808.8,-3.05,-33.83,-34.07,0,*5F
1485644660.95,54561,11.69,73806.8,-3.07,-34.01,-34.13,0,*54
1485644662.2,54562,11.69,73808.3,-3.05,-33.95,-34.19,0,*55
1485644663.47,54563,11.69,73808.0,-3.05,-34.01,-34.35,0,*50
1485644664.68,54564,11.69,73808.5,-3.07,-34.07,-34.25,0,*52
1485644665.95,54565,11.69,73810.3,-3.05,-34.19,-34.35,0,*5F
1485644667.16,54566,11.69,73810.3,-3.07,-34.13,-34.41,0,*57
1485644668.39,54567,11.69,73808.0,-3.07,-34.01,-34.41,0,*55
1485644669.62,54568,11.69,73806.5,-3.03,-34.13,-34.31,0,*5A
1485644670.9,54569,11.69,73810.5,-3.05,-34.01,-34.19,0,*54
1485644672.15,54570,11.69,73806.5,-3.03,-33.89,-34.19,0,*5D
1485644673.38,54571,11.69,73810.0,-3.05,-33.67,-33.95,0,*59
1485644674.63,54572,11.69,73810.5,-3.05,-33.77,-34.07,0,*57
1485644675.86,54573,11.69,73808.0,-3.05,-33.83,-34.07,0,*5D
1485644677.09,54574,11.69,73810.3,-3.05,-33.67,-33.83,0,*5B
1485644678.35,54575,11.69,73810.8,-3.03,-33.61,-33.77,0,*51
1485644679.6,54576,11.69,73804.3,-3.03,-33.61,-33.77,0,*52
1485644680.86,54577,11.69,73810.8,-3.03,-33.61,-33.77,0,*53
1485644682.12,54578,11.69,73806.5,-3.03,-33.73,-33.89,0,*5E
1485644683.38,54579,11.69,73810.0,-3.03,-33.89,-34.01,0,*5D
1485644684.61,54580,11.69,73808.0,-3.03,-34.13,-34.35,0,*58
1485644685.85,54581,11.69,73806.8,-3.03,-34.13,-34.35,0,*59
1485644687.1,54582,11.69,73810.0,-3.03,-34.19,-34.35,0,*50
1485644688.36,54583,11.69,73808.8,-3.03,-34.01,-34.19,0,*56
1485644689.56,54584,11.69,73808.0,-3.03,-33.95,-34.13,0,*51
1485644690.79,54585,11.69,73806.8,-3.05,-34.07,-34.25,0,*5F
1485644692.05,54586,11.69,73806.3,-3.05,-34.07,-34.35,0,*5D
1485644693.3,54587,11.69,73806.5,-3.03,-34.01,-34.31,0,*58
1485644694.56,54588,11.69,73806.3,-3.01,-33.95,-34.19,0,*55
1485644695.78,54589,11.69,73804.5,-3.03,-33.95,-34.19,0,*56
1485644697.02,54590,11.69,73806.5,-3.03,-34.01,-34.13,0,*5E
1485644698.25,54591,11.69,73810.8,-3.03,-33.95,-34.19,0,*5F
1485644699.47,54592,11.69,73808.5,-3.03,-33.95,-34.19,0,*5C
1485644700.7,54593,11.69,73810.5,-3.03,-33.95,-34.31,0,*57
1485644701.91,54594,11.69,73808.8,-3.03,-33.95,-34.13,0,*50
1485644703.14,54595,11.69,73804.5,-3.03,-33.89,-34.13,0,*5C
1485644704.37,54596,11.69,73804.5,-3.03,-33.77,-34.13,0,*5E
1485644705.64,54597,11.69,73808.5,-3.03,-33.73,-34.01,0,*58
1485644706.9,54598,11.69,73808.8,-3.03,-33.77,-34.19,0,*5A
1485644708.12,54599,11.69,73808.0,-3.03,-33.95,-34.19,0,*57
1485644709.38,54600,11.69,73806.8,-3.01,-34.13,-34.35,0,*51
1485644710.61,54601,11.69,73804.8,-3.03,-33.77,-34.13,0,*53
1485644711.85,54602,11.69,73808.8,-3.03,-33.77,-34.13,0,*50
1485644713.12,54603,11.69,73806.3,-3.03,-33.73,-34.01,0,*56
1485644714.38,54604,11.69,73808.5,-3.03,-33.73,-33.89,0,*56
1485644715.65,54605,11.69,73804.3,-3.03,-33.73,-33.89,0,*57
1485644716.9,54606,11.69,73806.0,-3.03,-33.61,-33.89,0,*57
1485644718.16,54607,11.69,73806.8,-3.03,-33.77,-34.01,0,*56
1485644719.44,54608,11.69,73806.8,-3.01,-33.61,-33.89,0,*5B
1485644720.74,54609,11.69,73808.3,-3.01,-33.73,-34.01,0,*5E
1485644722.0,54610,11.69,73810.8,-3.03,-33.77,-33.89,0,*57
1485644723.28,54611,11.69,73806.0,-3.01,-33.61,-34.01,0,*54
1485644724.57,54612,11.69,73806.5,-3.01,-33.73,-33.89,0,*53
1485644725.81,54613,11.69,73806.3,-3.03,-33.55,-33.77,0,*55
1485644727.09,54614,11.69,73804.8,-3.01,-33.77,-33.89,0,*51
1485644728.35,54615,11.69,73806.8,-3.01,-33.89,-34.13,0,*55
1485644729.6,54616,11.69,73808.0,-3.01,-33.89,-34.13,0,*56
1485644730.84,54617,11.69,73808.0,-2.99,-33.73,-34.07,0,*57
1485644732.08,54618,11.69,73806.8,-2.99,-33.73,-34.07,0,*58
1485644733.34,54619,11.69,73804.0,-2.99,-33.49,-33.73,0,*54
1485644734.56,54620,11.69,73806.5,-2.99,-33.37,-33.67,0,*52
1485644735.82,54621,11.69,73806.8,-2.99,-33.49,-33.73,0,*5F
1485644737.03,54622,11.69,73810.5,-2.99,-33.67,-33.95,0,*58
1485644738.26,54623,11.69,73808.8,-2.97,-33.83,-34.07,0,*51
1485644739.49,54624,11.69,73812.5,-2.97,-33.83,-34.07,0,*56
1485644740.75,54625,11.69,73806.5,-2.97,-33.73,-33.95,0,*54
1485644741.96,54626,11.69,73806.0,-2.99,-33.83,-34.07,0,*5A
1485644743.19,54627,11.69,73810.5,-2.97,-33.95,-34.13,0,*57
1485644744.39,54628,11.69,73806.0,-2.99,-34.07,-34.25,0,*5F
1485644745.63,54629,11.69,73808.0,-2.99,-34.13,-34.31,0,*5E
1485644746.84,54630,11.69,73806.3,-2.99,-34.07,-34.47,0,*52
1485644748.04,54631,11.69,73806.0,-2.99,-34.13,-34.25,0,*52
1485644749.26,54632,11.69,73810.3,-2.99,-34.07,-34.47,0,*50
1485644750.49,54633,11.69,73806.0,-2.99,-33.89,-34.07,0,*54
1485644751.72,54634,11.69,73806.5,-2.99,-33.95,-34.31,0,*5B
1485644752.95,54635,11.69,73808.3,-2.99,-34.07,-34.31,0,*56
1485644754.18,54636,11.69,73808.8,-2.99,-33.89,-34.07,0,*51
1485644755.43,54637,11.69,73806.3,-2.99,-33.89,-34.31,0,*55
1485644756.63,54638,11.69,73808.3,-2.99,-34.13,-34.25,0,*5B
1485644757.83,54639,11.69,73806.3,-2.99,-33.95,-34.25,0,*53
1485644759.07,54640,11.69,73804.5,-2.97,-33.83,-34.07,0,*54
1485644760.3,54641,11.69,73802.5,-2.99,-33.73,-34.07,0,*54
1485644761.53,54642,11.69,73804.0,-2.99,-33.89,-34.13,0,*57
1485644762.76,54643,11.69,73808.8,-2.99,-33.89,-34.13,0,*56
1485644763.99,54644,11.69,73808.3,-2.97,-33.67,-33.95,0,*56
1485644765.2,54645,11.69,73806.8,-2.99,-33.95,-34.13,0,*5D
1485644766.46,54646,11.69,73802.8,-2.97,-33.73,-33.95,0,*51
1485644767.72,54647,11.69,73804.3,-2.97,-33.73,-34.07,0,*5C
1485644768.95,54648,11.69,73806.0,-2.99,-33.89,-34.13,0,*5D
1485644770.18,54649,11.69,73808.3,-2.97,-34.07,-34.25,0,*56
1485644771.38,54650,11.69,73808.3,-2.99,-33.95,-34.25,0,*5C
1485644772.61,54651,11.69,73806.8,-2.97,-33.83,-34.07,0,*54
1485644773.84,54652,11.69,73804.5,-2.99,-33.89,-34.13,0,*56
1485644775.09,54653,11.69,73804.0,-2.97,-33.95,-34.31,0,*54
1485644776.32,54654,11.69,73804.5,-2.97,-34.07,-34.25,0,*5A
1485644777.57,54655,11.69,73806.5,-2.97,-33.89,-34.07,0,*5A
1485644778.82,54656,11.69,73804.0,-2.97,-33.89,-34.13,0,*5C
1485644780.07,54657,11.69,73800.5,-2.97,-33.95,-34.31,0,*50
1485644781.33,54658,11.69,73804.3,-2.97,-34.07,-34.31,0,*53
1485644782.57,54659,11.69,73804.5,-2.99,-34.31,-34.59,0,*57
1485644783.79,54660,11.69,73806.5,-2.97,-34.25,-34.41,0,*5F
1485644785.02,54661,11.69,73806.8,-2.97,-33.95,-34.13,0,*55
1485644786.25,54662,11.69,73806.3,-2.99,-33.95,-34.31,0,*58
1485644787.5,54663,11.69,73806.5,-2.97,-34.07,-34.31,0,*5B
1485644788.76,54664,11.69,73804.8,-2.97,-33.89,-34.07,0,*58
1485644789.99,54665,11.69,73806.0,-2.97,-33.83,-34.07,0,*53
1485644791.22,54666,11.69,73806.0,-2.99,-33.73,-33.95,0,*5D
1485644792.45,54667,11.69,73806.5,-2.97,-33.67,-33.95,0,*57
1485644793.66,54668,11.69,73804.0,-2.99,-33.83,-33.95,0,*5C
1485644794.91,54669,11.69,73804.3,-2.97,-33.89,-33.95,0,*59
1485644796.12,54670,11.69,73804.0,-2.99,-33.83,-34.13,0,*5C
1485644797.35,54671,11.69,73802.8,-2.97,-33.67,-33.83,0,*57
1485644798.61,54672,11.69,73806.0,-2.97,-33.73,-33.95,0,*56
1485644799.9,54673,11.69,73802.0,-2.97,-33.73,-33.89,0,*5A
1485644801.16,54674,11.69,73804.5,-2.95,-33.77,-33.89,0,*5B
1485644802.42,54675,11.69,73804.5,-2.95,-33.77,-34.01,0,*5D
1485644803.68,54676,11.69,73802.5,-2.95,-33.61,-33.77,0,*5F
1485644804.93,54677,11.69,73804.0,-2.95,-33.61,-33.89,0,*5F
1485644806.17,54678,11.69,73806.5,-2.95,-33.43,-33.67,0,*50
1485644807.42,54679,11.69,73804.0,-2.95,-33.43,-33.61,0,*57
1485644808.66,54680,11.69,73806.3,-2.95,-33.43,-33.67,0,*57
1485644809.91,54681,11.69,73806.3,-2.95,-33.61,-33.77,0,*57
1485644811.15,54682,11.69,73806.3,-2.91,-33.67,-33.89,0,*57
1485644812.41,54683,11.69,73806.5,-2.95,-33.77,-34.01,0,*54
1485644813.62,54684,11.69,73806.0,-2.91,-33.83,-34.07,0,*5A
1485644814.86,54685,11.69,73806.8,-2.91,-34.01,-34.25,0,*56
1485644816.11,54686,11.69,73806.8,-2.91,-34.01,-34.19,0,*5A
1485644817.32,54687,11.69,73804.0,-2.91,-34.07,-34.25,0,*52
1485644818.56,54688,11.69,73804.3,-2.95,-33.77,-34.07,0,*59
1485644819.8,54689,11.69,73804.3,-2.91,-33.83,-34.01,0,*51
1485644821.06,54690,11.69,73804.8,-2.91,-33.61,-34.01,0,*55
1485644822.3,54691,11.69,73804.0,-2.91,-33.49,-33.67,0,*59
1485644823.54,54692,11.69,73804.8,-2.91,-33.43,-33.67,0,*50
1485644824.79,54693,11.69,73804.5,-2.91,-33.43,-33.61,0,*57
1485644826.05,54694,11.69,73806.5,-2.91,-33.61,-33.89,0,*56
1485644827.31,54695,11.69,73804.3,-2.91,-33.49,-33.89,0,*5D
1485644828.57,54696,11.69,73806.8,-2.89,-33.27,-33.55,0,*5E
1485644829.82,54697,11.69,73804.5,-2.87,-33.27,-33.61,0,*56
1485644831.03,54698,11.69,73804.8,-2.87,-33.55,-33.83,0,*50
1485644832.31,54699,11.69,73802.0,-2.89,-33.77,-34.01,0,*52
1485644833.54,54700,11.69,73802.3,-2.87,-33.95,-34.31,0,*52
1485644834.79,54701,11.69,73802.8,-2.89,-33.61,-33.95,0,*5F
1485644836.02,54702,11.69,73804.3,-2.87,-33.77,-33.95,0,*55
1485644837.25,54703,11.69,73804.8,-2.89,-33.83,-33.95,0,*51
1485644838.51,54704,11.69,73806.0,-2.87,-33.77,-34.01,0,*59
1485644839.74,54705,11.69,73804.5,-2.87,-33.61,-33.95,0,*55
1485644841.02,54706,11.69,73804.3,-2.89,-33.43,-33.73,0,*50
1485644842.28,54707,11.69,73802.3,-2.89,-33.43,-33.83,0,*5E
1485644843.48,54708,11.69,73806.5,-2.87,-33.55,-33.83,0,*58
1485644844.74,54709,11.69,73806.8,-2.87,-33.27,-33.61,0,*50
1485644846.0,54710,11.69,73806.0,-2.87,-33.73,-34.01,0,*58
1485644847.24,54711,11.69,73804.0,-2.87,-33.83,-34.01,0,*56
1485644848.51,54712,11.69,73804.0,-2.85,-33.49,-33.67,0,*56
1485644849.75,54713,11.69,73804.0,-2.87,-33.37,-33.73,0,*59
1485644851.04,54714,11.69,73804.3,-2.85,-33.49,-33.77,0,*51
1485644852.29,54715,11.69,73806.8,-2.85,-33.55,-33.77,0,*5D
1485644853.55,54716,11.69,73804.3,-2.85,-33.55,-33.89,0,*5F
1485644854.81,54717,11.69,73806.8,-2.85,-33.37,-33.77,0,*5B
1485644856.05,54718,11.69,73806.3,-2.85,-33.55,-33.67,0,*51
1485644857.28,54719,11.69,73804.0,-2.83,-33.55,-33.77,0,*57
1485644858.53,54720,11.69,73806.8,-2.85,-33.55,-33.77,0,*5B
1485644859.8,54721,11.69,73810.8,-2.83,-33.73,-33.89,0,*59
1485644861.02,54722,11.69,73804.8,-2.83,-33.77,-33.95,0,*53
1485644862.28,54723,11.69,73806.5,-2.85,-33.77,-33.95,0,*54
1485644863.51,54724,11.69,73804.8,-2.83,-33.77,-34.13,0,*5C
1485644864.73,54725,11.69,73806.8,-2.85,-33.95,-34.25,0,*52
1485644865.96,54726,11.69,73806.0,-2.83,-34.07,-34.31,0,*5E
1485644867.19,54727,11.69,73806.8,-2.83,-34.07,-34.31,0,*5F
1485644868.45,54728,11.69,73802.8,-2.85,-34.07,-34.31,0,*56
1485644869.7,54729,11.69,73804.0,-2.83,-33.89,-34.31,0,*50
1485644870.95,54730,11.69,73806.3,-2.85,-33.89,-34.25,0,*5B
1485644872.18,54731,11.69,73802.5,-2.85,-33.95,-34.25,0,*57
1485644873.44,54732,11.69,73806.8,-2.85,-34.07,-34.31,0,*5D
1485644874.64,54733,11.69,73806.0,-2.83,-34.07,-34.41,0,*5D
1485644875.87,54734,11.69,73802.8,-2.85,-34.13,-34.41,0,*59
1485644877.07,54735,11.69,73806.0,-2.83,-34.13,-34.25,0,*5C
1485644878.3,54736,11.69,73804.8,-2.85,-33.95,-34.25,0,*50
1485644879.55,54737,11.69,73806.5,-2.85,-33.89,-34.13,0,*59
1485644880.82,54738,11.69,73804.0,-2.85,-33.73,-33.95,0,*5A
1485644882.1,54739,11.69,73804.5,-2.85,-33.49,-33.77,0,*5E
1485644883.34,54740,11.69,73804.8,-2.83,-33.67,-33.77,0,*5A
1485644884.54,54741,11.69,73806.0,-2.83,-33.55,-33.95,0,*56
1485644885.8,54742,11.69,73808.0,-2.85,-33.67,-33.89,0,*5F
1485644887.03,54743,11.69,73804.5,-2.83,-33.55,-33.89,0,*59
1485644888.26,54744,11.69,73806.3,-2.83,-33.67,-33.89,0,*5F
1485644889.48,54745,11.69,73804.8,-2.83,-33.77,-34.07,0,*5E
1485644890.71,54746,11.69,73806.8,-2.83,-33.89,-34.07,0,*5C
1485644891.96,54747,11.69,73806.5,-2.81,-34.01,-34.25,0,*58
1485644893.21,54748,11.69,73806.0,-2.81,-34.01,-34.25,0,*57
1485644894.46,54749,11.69,73806.8,-2.83,-33.89,-34.31,0,*56
1485644895.72,54750,11.69,73802.5,-2.83,-33.73,-33.89,0,*5F
1485644896.95,54751,11.69,73802.8,-2.83,-33.73,-33.95,0,*53